Current weather by "City, St" or "zip code"  
 

Current Conditions: Mineral Wells, Mineral Wells Airport, TX

Fair


52.0 F

Last Updated on Oct 29 2020, 6:53 pm CDT
Humidity: 61%
Wind Speed: NW 6.9 mph
Barometer 30.17 in
Dewpoint: 39.0 F
Visibility: 10.00 mi
Precip: --
Heat Index: NA
Wind Chill: 50 F
Current conditions at:

Mineral Wells, Mineral Wells Airport, TX (KMWL)

Lat: 32.78167 Lon: 98.06028

Local Radar Image active severe weather and emergency alerts image image weather storm and storm spotter reports image weather observation monitoring service image
Local
Radar
Active
Alerts
Storm Reports Obs
Monitoring

Sign-up For Email & Text Message Weather Alert Notification Services



Advertise Here

Observation History for Mineral Wells, Mineral Wells Airport, TX


Time Wind
(mph)
Vis
(mi)
Weather Precip (in) Temperature (F) Relative
Humidity
Wind
Chill
(F)
Heat
Index
(F)
Pressure
Air Dwpt altimeter
(in)
sea level
(mb)
Rmks
6:53 pm CDT NW 6.9 10.00 Fair -- 52.0 39.0 61% 50 NA 30.17 1021.6
5:53 pm CDT NW 12.7 10.00 Fair -- 59.0 41.0 51% 57 NA 30.16 1021.2
4:53 pm CDT NW 13.8 G 24.2 10.00 A Few Clouds -- 61.0 43.0 52% 59 NA 30.15 1020.7
3:53 pm CDT NW 15.0 10.00 A Few Clouds -- 60.0 44.1 56% 57 NA 30.14 1020.1
2:53 pm CDT NW 19.6 G 25.3 10.00 Overcast -- 57.0 43.0 60% 53 NA 30.14 1020.2
1:53 pm CDT NW 12.7 G 24.2 10.00 Overcast -- 52.0 42.1 69% 48 NA 30.15 1020.7
12:53 pm CDT NW 15.0 10.00 Overcast -- 52.0 41.0 66% 47 NA 30.14 1020.7
11:53 am CDT NW 17.3 10.00 Overcast -- 49.0 39.9 71% 43 NA 30.14 1020.7
10:53 am CDT NW 17.3 10.00 Overcast -- 46.0 37.9 73% 39 NA 30.12 1020.1
9:53 am CDT NW 21.9 G 32.2 10.00 Overcast and Breezy -- 44.0 37.9 79% 35 NA 30.09 1018.8
8:53 am CDT NW 19.6 G 27.6 10.00 Overcast -- 43.0 37.9 82% 35 NA 30.04 1017.4
7:53 am CDT NW 13.8 9.00 Overcast -- 42.0 39.0 89% 35 NA 29.99 1015.7
6:53 am CDT NW 17.3 G 27.6 10.00 Overcast -- 43.0 37.9 82% 35 NA 29.95 1014.1
5:53 am CDT W 15.0 G 25.3 10.00 Overcast -- 42.0 37.9 85% 34 NA 29.91 1012.7
4:53 am CDT W 19.6 G 27.6 10.00 Overcast -- 43.0 36.0 76% 35 NA 29.87 1011.3
3:53 am CDT W 11.5 10.00 Overcast -- 43.0 36.0 76% 37 NA 29.87 1011.3
2:53 am CDT W 16.1 G 27.6 10.00 Overcast -- 43.0 35.1 74% 35 NA 29.85 1010.6
12:53 am CDT W 5.8 10.00 Partly Cloudy -- 40.0 34.0 79% 36 NA 29.84 1010.5
11:53 pm CDT W 5.8 10.00 Fair -- 40.0 35.1 83% 36 NA 29.85 1010.9
10:53 pm CDT SW 5.8 10.00 Fair -- 39.0 35.1 86% 35 NA 29.85 1010.8
9:53 pm CDT SW 3.5 10.00 Overcast -- 43.0 37.9 82% NA NA 29.86 1011.4
8:53 pm CDT W 3.5 10.00 Overcast -- 43.0 37.0 80% NA NA 29.88 1012.0
7:53 pm CDT N 0.0 10.00 A Few Clouds -- 42.0 35.1 76% NA NA 29.87 1011.7

Regional Weather Observation


Graham, Graham Municipal Airport, TX (KRPH)

Fair
53.0 F

Stephens County Airport, TX (KBKD)

Fair
57.0 F

Bridgeport, Bridgeport Municipal Airport, TX (KXBP)

Fair
56.0 F

Stephenville, Clark Field Municipal Airport, TX (KSEP)

Fair
55.0 F

Decatur, Decatur Municipal Airport, TX (KLUD)

Fair
53.0 F

Granbury, Granbury Municipal Airport, TX (KGDJ)

Fair
57.0 F